Tracking 19706 objects as of 17-Jun-2019
HD Live streaming from Space Station
objects crossing your sky now

CZ-4B DEB

Track CZ-4B DEB now!
10-day predictions


NORAD ID: 29536
Int'l Code: 2006-015C
Perigee: 605.5 km
Apogee: 837.8 km
Inclination: 97.8 °
Period: 99.1 minutes
Semi major axis: 7092 km
RCS: 0.0177 m2 (small)
Launch date: April 26, 2006
Source: People's Republic of China (PRC)
Launch site: Taiyaun Space Center, China (TSC)

Note: This is SATELLITE DEBRIS
aabbcc
Your satellite tracking list
Your tracking list is empty




NASA's NSSDC Master Catalog

Two Line Element Set (TLE):
1 29536U 06015C   19166.14629950  .00000374  00000-0  84918-4 0  9994
2 29536  97.8220 229.4626 0163700 160.0930 200.6756 14.53415466689921
Source of the keplerian elements: AFSPC